FENGYUN 1C DEB, 31250

Orbit data source: Space-Track

FENGYUN 1C DEB, 31250 is space debris in SSO originally from a launch on Mon, 10 May 1999 UTC launched from the Taiyaun Space Center, China (TSC). Fengyun 1C debris stems from the Chinese weather satellite Fengyun-1C, which was intentionally destroyed by a Chinese anti-satellite missile in 2007. This event dramatically increased the amount of space debris, with thousands of trackable fragments posing hazards to satellites and human spaceflight. The Fengyun 1C debris cloud has become a focal point in discussions about space sustainability and the need for international regulations to prevent the creation of new debris.

Loading next visibility...
Identifier
31250, 1999-025BMG
Orbit
SSO
Country
Flag of CNCN / PRC
Related business
Manufacturer
Unknown
Mission
Spacecraft
Bus & Motor
Unknown
Mass
Unknown
Launch date (UTC)
1999-05-10 (26 years ago)
Launch vehicle
Unknown
Launch site
Taiyaun Space Center, China (TSC)
Object type
Payload
Rocket body
Debris
Shape & HBR
Unknown shape, 0.1 m
Radar Cross Section
Small (<0.1 m²)

Expand to show TLE details & history
Last TLE update: 14 hours ago

TLE from 14 hours ago
0 FENGYUN 1C DEB
1 31250U 99025BMG 25295.35432639  .00001874  00000-0  11412-2 0  9995
2 31250  98.3931 149.3681 0134444  82.2075 279.4332 14.02813875947977
Epoch: 2025-10-22T08:30Z
TLE epoch observation values (Epoch: 2025-10-22T08:30:13.800Z)
Latitude
-0.00006°
Longitude
-9.21853°
Altitude
872.245 km
Speed
7.424 km/s
True Right ascension
09h 57m 28s
True Declination
0° 00' 00"
Sunlit
Object was in daylight at epoch
Visualization orbit readout
Latitude
Unknown
Longitude
Unknown
Altitude
Unknown
Speed
Unknown
Apparent Right ascension
Unknown
Apparent Declination
Unknown
Sunlit
N/A
Visualization observer readout
Local Sidereal Time
17:39:33
Azimuth
Unknown
Elevation
Unknown
Doppler factor
Unknown
Orbital elements
Apogee altitude
978.831 km
Perigee altitude
783.636 km
Semi-major axis
7,259.371 km
Eccentricity
0.01344
Inclination
98.3931°
RAAN
149.3681°
Arg. of periapsis
82.2075°
True anomaly
277.9094°
Mean anomaly
279.4332°
Eccentric anomaly
278.6717°
Mean motion
3.50909 °/min
Orbital period
102.59 mins
BSTAR
0.0011412
Loading maneuver chart data...
Computing Atmospheric mass density...

Documentation

Showing up to 5 results
|